Location: Passau
(48.5830°N, 13.4830°E)
Time: 21:48:46
(UTC+02:00)

S-56A Canister/Altair - Pass Details

Date: 27 May 2024
Orbit: 637 x 2489 km, 38.9° (Epoch: 16 June)

Event Time Altitude Azimuth Distance (km) Brightness Sun altitude
Rises 06:21:02 0° 235° (SW) 6,112 11.5 9.2°
Reaches altitude 10° 06:25:28 10° 229° (SW) 5,000 11.1 9.9°
Maximum altitude 06:38:10 44° 165° (SSE) 2,553 10.3 11.9°
Drops below altitude 10° 06:47:31 10° 98° (E) 3,722 12.5 13.4°
Sets 06:50:18 0° 91° (E) 4,468 12.9 13.8°
